Location: Gleizolles
(44.4833°N, 6.7667°E)
Time: 01:24:00
(UTC+00:00)

S-56A Canister/Altair - Pass Details

Date: 27 June 2024
Orbit: 638 x 2488 km, 38.9° (Epoch: 24 July)

Event Time Altitude Azimuth Distance (km) Brightness Sun altitude
Rises 01:16:34 0° 281° (W) 5,168 11.6 -18.4°
Reaches altitude 10° 01:20:08 10° 271° (W) 4,413 11.2 -18.2°
Maximum altitude 01:30:36 32° 216° (SW) 3,448 10.2 -17.3°
Drops below altitude 10° 01:42:49 10° 161° (SSE) 5,139 11.3 -16.3°
Sets 01:47:27 0° 152° (SSE) 6,114 11.8 -15.9°
